Temperature
10 10 10 10 9 9 9 9 9 9 9 9 9 9 9 9 9 9 9 9 9 9 9 9 9 9 9 9 9 9 9 9 9 9 9 9 9 9 9 9 9 9 9
10 10 9 9 9 9 9 9 9 9 9 9 9 8 8 9 8 8 8 8 8 8 8 8 8 8 8 8 9 9 9 9 9 9 9 9 9 9 9 9 9 9 9
9 9 9 9 9 8 8 8 8 8 8 8 8 8 8 8 8 8 8 8 8 8 8 8 8 8 8 8 8 8 8 8 8 8 8 8 8 8 8 9 9 9 9
9 9 8 8 8 8 8 8 8 8 8 8 8 7 7 7 7 7 7 7 7 7 7 7 7 7 7 7 7 7 7 7 8 8 8 8 8 8 8 8 8 8 8
8 8 8 8 8 8 7 7 7 7 7 7 7 7 7 7 7 6 6 6 7 7 7 7 7 7 7 6 6 7 7 7 7 7 7 7 7 7 7 7 7 8 8
8 8 8 7 7 7 7 7 7 7 7 7 6 6 6 6 6 6 6 6 6 6 6 6 6 6 6 6 6 6 6 6 6 6 6 7 7 7 7 7 7 7 7
7 7 7 7 7 7 7 6 6 6 6 6 6 5 5 5 5 5 5 5 5 5 5 5 6 6 6 6 6 6 6 5 5 6 6 6 6 6 6 6 6 6 6
7 7 7 6 6 6 6 6 6 6 5 5 5 5 4 4 4 5 5 5 5 5 5 5 5 5 5 5 5 5 5 5 5 5 5 5 5 6 6 6 6 6 6
6 6 6 6 6 6 6 6 6 6 6 5 5 5 4 4 3 4 4 4 4 4 4 4 4 4 4 4 5 5 5 5 4 4 4 5 5 5 5 5 5 6 6
5 6 6 5 5 5 5 5 5 5 5 5 5 5 5 5 4 3 3 3 3 4 4 4 4 4 4 4 4 4 4 4 4 4 4 4 4 4 4 5 5 5 5
5 5 5 5 5 5 5 5 5 5 5 5 5 5 4 4 4 4 3 3 3 3 3 3 3 3 3 3 3 3 4 4 4 4 4 4 4 4 4 4 4 4 4
4 4 4 4 4 4 4 4 4 4 4 4 4 4 4 4 4 4 3 3 2 2 2 2 3 3 3 3 3 3 3 3 3 3 3 3 3 3 3 3 4 4 4
4 4 4 4 4 4 4 4 4 4 4 4 4 4 3 4 4 4 3 3 2 2 2 2 2 2 2 2 2 2 2 2 3 3 3 3 3 3 3 3 3 3 3
3 3 3 3 3 3 3 3 3 3 3 3 3 3 3 3 3 3 3 3 2 1 1 2 2 2 2 2 2 2 2 2 2 2 2 2 2 2 2 2 2 2 2
3 2 2 2 2 2 3 3 3 3 3 3 3 2 2 2 2 2 2 2 2 2 1 2 2 2 1 1 1 1 1 1 1 2 2 2 2 2 2 2 2 2 2
2 2 2 2 2 2 2 2 2 2 2 2 2 2 2 2 2 2 2 2 2 2 1 2 1 1 1 1 1 1 1 1 1 1 1 1 1 1 1 1 1 1 1
1 1 1 1 1 1 1 1 2 2 2 2 1 2 2 2 1 1 1 1 1 1 1 1 1 1 1 0 0 0 0 0 0 1 1 1 1 0 0 1 1 1 1
1 1 1 1 1 1 1 1 1 1 1 1 1 1 1 1 1 1 1 0 1 0 0 1 0 0 0 -0 -0 -0 -0 -0 -0 -0 -0 -0 -0 -0 -0 -0 -0 -0 -0
0 0 0 0 0 0 0 0 0 0 0 0 1 0 0 0 0 0 0 -0 -0 -0 -0 -0 -0 -0 -0 -1 -1 -1 -1 -1 -1 -1 -1 -1 -1 -1 -1 -1 -1 -1 -1
-0 -0 -0 -0 -0 -0 -0 -0 -0 -0 -0 -0 0 0 -0 -0 -0 -0 -0 -1 -1 -1 -1 -1 -1 -1 -1 -1 -2 -2 -2 -2 -1 -2 -2 -1 -1 -1 -1 -1 -1 -1 -1
-1 -1 -1 -1 -1 -1 -1 -1 -1 -1 -1 -1 -1 -1 -1 -1 -1 -1 -1 -1 -1 -1 -1 -2 -2 -2 -2 -2 -2 -2 -2 -2 -2 -2 -2 -2 -2 -2 -2 -2 -2 -2 -2
-2 -2 -2 -2 -1 -1 -1 -1 -1 -1 -1 -1 -1 -1 -1 -1 -1 -1 -1 -2 -2 -2 -2 -2 -2 -2 -2 -2 -2 -3 -3 -3 -3 -3 -3 -3 -3 -2 -2 -2 -2 -2 -3
-2 -2 -2 -2 -2 -2 -2 -2 -2 -2 -2 -2 -2 -2 -2 -2 -2 -2 -2 -2 -2 -2 -2 -2 -2 -2 -2 -2 -3 -3 -3 -3 -3 -3 -4 -3 -3 -3 -3 -3 -3 -3 -3
-3 -3 -3 -3 -3 -2 -2 -2 -3 -3 -3 -3 -3 -3 -3 -3 -3 -3 -3 -3 -3 -3 -3 -3 -3 -3 -3 -3 -3 -4 -4 -4 -4 -4 -5 -5 -4 -4 -4 -4 -4 -4 -4
-4 -4 -3 -3 -3 -3 -3 -3 -3 -3 -3 -3 -3 -3 -3 -3 -3 -3 -3 -3 -3 -3 -3 -4 -4 -4 -4 -4 -4 -4 -5 -5 -5 -5 -5 -5 -5 -5 -5 -4 -4 -4 -5
-4 -4 -4 -4 -4 -4 -4 -4 -4 -4 -4 -4 -4 -4 -4 -4 -4 -4 -4 -4 -4 -4 -4 -4 -4 -4 -4 -5 -5 -5 -5 -5 -5 -6 -5 -6 -5 -6 -6 -5 -5 -5 -5
Wind_Speed
8 8 8 8 9 10 10 10 10 11 10 11 11 11 10 11 11 10 11 12 11 11 11 11 11 11 11 11 11 11 10 10 11 10 11 11 10 10 10 10 10 10 10
9 8 8 8 8 9 10 10 10 9 9 9 10 10 10 10 11 11 11 12 12 11 11 11 10 10 10 10 10 10 10 9 10 10 10 10 10 10 10 9 9 9 9
10 9 7 7 8 10 11 11 11 10 8 8 8 9 9 10 10 11 11 11 11 11 10 10 10 9 9 9 9 9 10 9 9 10 10 10 10 10 9 9 8 8 8
11 9 7 7 9 10 9 8 7 6 5 5 5 5 7 8 9 10 10 10 10 10 10 10 10 9 8 8 8 8 9 9 9 9 9 9 9 8 8 8 7 7 7
11 10 8 8 11 9 7 7 5 5 6 5 5 5 5 6 6 8 9 9 9 9 9 9 10 9 8 8 7 8 8 8 8 8 8 7 7 7 7 7 7 6 6
10 9 8 8 10 7 6 6 6 5 5 6 6 5 4 5 5 6 6 7 8 8 8 8 8 8 8 8 7 6 6 6 6 6 6 6 6 6 6 6 5 6 5
10 9 8 8 7 6 7 8 7 7 5 5 5 4 4 4 4 4 5 5 6 6 7 7 7 7 6 6 6 6 5 5 5 5 5 5 5 5 4 4 5 5 5
9 8 8 7 7 6 7 7 8 5 4 4 4 4 2 2 3 3 2 2 3 4 5 5 5 6 6 6 5 5 4 4 3 4 4 4 4 4 3 3 4 4 4
9 9 9 8 7 7 7 8 8 7 6 3 2 4 4 3 1 2 2 1 1 2 3 3 4 4 4 4 4 4 3 3 3 3 3 3 3 3 2 2 2 3 3
9 9 9 9 8 7 7 8 7 5 7 6 2 1 2 4 3 1 2 1 1 0 0 1 2 2 3 3 2 2 2 2 3 3 3 2 2 2 2 2 2 2 3
6 8 9 8 8 7 7 7 6 6 6 6 4 3 2 1 2 3 2 2 1 1 1 2 2 3 3 2 2 1 1 2 3 3 4 3 3 3 3 3 3 3 3
4 6 7 8 7 7 7 8 7 7 6 6 4 4 4 3 3 3 3 2 2 2 2 2 2 3 3 3 2 1 2 2 3 4 4 4 4 4 4 4 4 4 3
4 5 6 6 6 6 7 7 7 7 7 7 6 4 4 3 3 3 3 2 2 2 2 2 4 4 3 3 3 2 3 3 4 5 5 5 5 4 5 5 5 5 4
5 6 6 6 6 7 7 6 5 6 6 6 6 5 4 3 4 4 4 3 2 2 2 4 2 5 5 4 4 4 3 4 5 5 6 6 6 5 5 5 6 5 5
5 6 7 7 6 7 7 6 5 6 6 6 6 6 4 4 4 4 4 5 5 4 5 4 3 4 5 5 5 4 4 5 6 6 6 6 6 5 5 5 6 6 6
6 6 6 7 6 6 6 6 5 6 6 5 5 6 5 4 4 4 4 4 3 4 4 4 3 2 5 5 6 5 5 6 6 6 6 6 6 5 5 5 6 6 6
6 7 7 6 7 7 7 6 6 6 7 6 5 7 7 6 5 4 4 4 3 3 3 3 2 2 3 4 4 5 6 5 5 6 6 6 6 6 5 5 5 6 6
6 6 6 6 6 6 7 7 7 7 7 7 7 7 7 6 6 5 5 5 4 4 3 4 2 2 3 4 4 4 4 5 5 6 7 7 7 6 6 6 6 7 7
5 5 6 6 6 6 7 7 7 7 7 7 7 8 8 8 7 5 6 6 5 4 3 3 3 2 2 2 2 2 3 4 5 6 7 7 7 7 7 7 7 8 8
5 5 5 6 6 6 7 7 7 6 6 6 6 7 8 8 9 8 7 7 5 4 3 3 2 2 2 2 2 2 3 2 3 5 6 7 8 7 7 8 8 8 8
4 4 4 4 5 5 6 7 7 7 7 6 6 7 7 9 10 9 7 7 7 5 4 4 3 2 3 3 4 3 3 3 3 3 3 5 6 6 7 8 9 9 9
4 4 4 5 5 5 7 9 7 7 7 7 7 7 7 8 9 10 10 10 9 8 7 5 4 5 5 4 3 3 2 2 4 3 2 4 4 5 7 8 9 10 10
4 4 4 4 5 6 8 9 9 6 7 7 8 7 6 6 7 6 7 8 8 9 9 7 7 7 6 6 6 5 5 4 5 3 2 4 3 4 7 9 10 10 10
4 4 4 5 5 6 8 8 8 6 6 6 7 7 7 6 7 7 7 6 6 6 7 6 7 7 7 7 8 6 5 3 2 3 3 4 4 4 6 8 10 10 10
3 4 4 4 5 5 7 8 7 5 5 5 6 6 6 7 9 9 7 7 6 5 6 6 6 6 7 7 7 3 3 3 3 3 3 3 3 3 4 5 8 9 9
4 3 4 4 5 5 7 8 7 4 5 4 4 5 7 8 9 9 7 8 7 6 4 3 3 3 4 6 8 7 5 5 3 3 3 3 3 2 3 3 5 6 7
Wind_Direction
129 123 117 113 111 110 107 101 97 93 87 82 81 79 74 73 70 67 67 71 77 83 88 89 88 86 82 78 78 77 77 78 79 83 84 83 82 81 80 77 74 71 68
139 133 127 121 120 120 115 111 108 100 92 88 80 76 74 72 70 67 66 67 69 74 81 84 84 84 83 82 80 80 77 79 78 80 83 84 80 77 75 73 71 70 68
144 141 135 131 132 129 120 112 105 101 96 90 81 74 72 70 70 68 67 66 66 66 71 78 78 81 81 81 81 80 76 77 79 77 79 80 78 75 71 70 69 66 63
147 141 139 139 138 131 123 117 112 108 99 95 85 71 69 70 68 70 69 67 68 66 66 70 71 73 78 77 79 79 77 75 76 76 75 75 73 75 71 66 63 62 62
151 144 143 146 143 134 127 128 118 119 115 103 91 73 62 65 66 71 70 67 69 70 68 66 66 65 72 72 74 78 77 74 69 69 69 70 69 67 66 63 59 56 57
155 147 142 145 147 141 138 135 130 119 122 119 99 72 49 52 59 66 70 70 71 72 74 70 67 63 64 66 66 69 70 71 66 65 66 63 65 61 58 57 55 51 49
157 152 149 148 152 155 155 148 138 130 128 127 105 79 38 35 43 46 63 71 68 71 78 75 73 68 60 56 56 56 59 67 65 62 63 60 57 54 51 51 49 45 42
164 159 155 160 161 154 152 154 148 145 156 156 136 127 100 20 9 12 30 65 68 76 78 80 84 78 70 60 55 50 48 52 52 50 53 53 47 45 41 42 41 37 34
171 167 166 166 168 167 170 170 169 160 167 186 164 147 152 187 221 340 351 7 70 79 79 89 95 93 86 73 63 50 41 37 34 27 27 29 29 30 27 23 25 22 17
179 174 172 171 174 175 177 181 177 172 166 172 173 157 146 150 156 167 319 326 336 334 150 133 116 115 110 97 80 50 31 15 356 348 347 347 343 357 355 342 344 347 352
186 180 177 177 178 179 181 182 182 180 178 177 172 157 133 115 139 160 203 259 303 287 250 199 168 154 148 141 127 114 348 336 326 321 322 318 314 316 329 323 316 317 321
187 185 181 184 185 183 186 188 187 188 190 183 180 172 166 167 177 167 182 215 245 274 276 238 200 183 176 168 177 239 277 291 305 306 307 311 305 307 309 317 302 300 304
199 192 184 183 187 191 190 188 189 191 191 185 187 191 187 183 166 162 161 184 235 269 261 250 222 203 202 188 195 245 267 277 289 296 296 299 303 304 306 312 310 295 294
201 189 184 187 191 189 187 185 191 196 191 191 194 192 191 191 173 172 171 168 189 255 247 244 233 213 210 207 218 239 253 270 277 286 292 294 298 301 301 307 311 303 292
195 186 186 189 192 192 188 184 196 202 195 198 197 195 196 197 188 180 174 172 172 204 235 235 224 217 218 217 228 228 240 259 267 276 285 288 291 291 291 300 305 308 299
187 187 190 190 192 193 190 188 196 202 197 202 198 194 199 198 189 182 180 181 183 192 223 223 226 224 215 228 237 232 237 257 267 270 277 281 279 280 284 291 295 302 307
192 192 193 196 196 195 191 193 202 200 201 205 205 201 202 193 192 190 185 184 186 184 213 248 244 222 201 212 231 231 239 245 256 269 276 279 277 276 280 287 293 297 301
197 193 195 199 202 200 196 199 204 205 202 205 206 203 205 198 195 193 191 195 198 196 198 224 242 224 224 214 209 216 240 248 254 266 272 276 275 274 275 280 288 294 295
194 192 195 201 203 205 204 204 204 205 205 209 205 204 206 196 200 200 197 199 200 200 192 199 228 236 235 214 214 243 247 249 261 265 269 273 275 273 273 276 283 287 289
194 196 204 206 207 208 207 205 204 205 208 211 212 210 209 203 204 201 202 203 195 190 182 182 207 228 238 216 201 233 265 264 270 264 267 272 274 272 273 276 280 283 284
202 200 202 211 212 214 210 202 203 207 209 213 217 217 217 217 215 210 207 199 192 192 189 191 203 219 226 214 218 224 246 273 278 258 266 265 264 265 269 273 274 277 278
204 200 206 213 220 225 222 215 206 204 210 213 216 220 223 220 221 221 217 209 198 194 195 199 212 217 220 220 212 219 230 259 270 244 241 266 251 254 259 266 273 275 275
200 207 214 216 224 232 227 220 216 207 209 213 212 213 221 221 220 215 217 213 216 218 211 204 209 219 213 207 199 211 219 232 250 240 238 266 253 259 263 268 275 276 277
206 211 217 219 228 238 234 225 219 211 212 215 214 212 214 217 215 208 203 207 213 219 221 219 215 217 214 206 202 207 216 233 274 249 220 255 263 262 270 268 274 275 277
222 221 220 218 227 240 238 229 222 205 214 220 221 220 216 217 219 210 201 203 211 223 226 228 234 230 222 212 200 180 188 210 252 250 223 239 263 278 274 264 268 275 277
224 227 233 227 227 234 237 232 221 204 212 219 222 226 225 222 221 209 198 197 209 216 205 208 222 225 211 207 206 196 197 210 236 248 222 220 250 268 283 274 263 272 274
Height
1542 1544 1545 1546 1548 1549 1550 1551 1552 1553 1554 1555 1556 1557 1557 1557 1558 1558 1558 1559 1560 1561 1561 1561 1561 1562 1562 1562 1563 1563 1564 1564 1564 1564 1565 1565 1565 1565 1565 1565 1565 1565 1565
1540 1542 1543 1545 1546 1548 1549 1550 1551 1552 1553 1554 1555 1556 1557 1557 1558 1558 1558 1559 1560 1560 1561 1561 1561 1562 1562 1562 1563 1563 1563 1564 1564 1564 1565 1565 1565 1565 1565 1565 1565 1565 1564
1538 1540 1541 1543 1545 1546 1548 1549 1550 1551 1553 1554 1554 1556 1556 1557 1557 1558 1558 1559 1559 1560 1560 1561 1561 1561 1562 1562 1562 1563 1563 1563 1563 1564 1564 1564 1564 1564 1564 1564 1564 1564 1564
1536 1537 1539 1541 1543 1544 1546 1547 1548 1550 1551 1552 1553 1554 1555 1556 1557 1557 1558 1559 1559 1559 1560 1560 1560 1561 1561 1561 1562 1562 1562 1562 1563 1563 1563 1563 1563 1563 1563 1563 1563 1563 1563
1533 1535 1536 1538 1540 1542 1544 1545 1547 1548 1549 1551 1552 1553 1554 1555 1556 1557 1557 1558 1558 1559 1559 1559 1559 1560 1560 1560 1561 1561 1561 1561 1561 1562 1562 1562 1562 1562 1562 1562 1562 1561 1561
1530 1531 1533 1535 1537 1539 1540 1542 1544 1546 1547 1549 1550 1552 1553 1554 1555 1555 1556 1556 1557 1558 1558 1558 1559 1559 1559 1559 1559 1560 1560 1560 1560 1560 1560 1560 1560 1560 1560 1560 1560 1560 1560
1527 1528 1530 1532 1534 1536 1537 1539 1541 1543 1544 1546 1548 1549 1551 1552 1553 1554 1554 1555 1555 1556 1557 1557 1557 1557 1558 1558 1558 1558 1558 1558 1558 1558 1558 1558 1558 1558 1558 1558 1558 1558 1558
1523 1525 1526 1528 1530 1532 1534 1536 1537 1539 1541 1543 1545 1546 1548 1551 1550 1551 1552 1553 1553 1554 1554 1555 1555 1556 1556 1556 1556 1556 1556 1556 1556 1556 1556 1556 1556 1556 1556 1556 1556 1556 1555
1519 1521 1523 1525 1527 1528 1530 1532 1534 1535 1537 1539 1542 1543 1544 1545 1547 1548 1549 1550 1551 1551 1552 1553 1553 1554 1554 1554 1554 1554 1554 1554 1554 1554 1554 1554 1554 1553 1553 1553 1553 1553 1553
1515 1517 1519 1520 1522 1524 1526 1528 1530 1532 1534 1535 1538 1540 1541 1542 1544 1544 1546 1547 1548 1548 1549 1550 1551 1551 1551 1551 1551 1552 1552 1552 1552 1552 1551 1551 1551 1551 1551 1550 1550 1550 1550
1511 1513 1514 1516 1518 1520 1522 1524 1526 1528 1530 1531 1533 1535 1537 1538 1539 1541 1541 1543 1544 1545 1546 1547 1547 1548 1548 1548 1548 1549 1549 1549 1549 1549 1549 1549 1548 1548 1548 1547 1547 1547 1547
1506 1508 1510 1512 1514 1516 1518 1520 1522 1524 1526 1528 1530 1531 1532 1534 1535 1537 1537 1538 1540 1541 1542 1543 1544 1544 1545 1545 1545 1546 1546 1546 1546 1546 1546 1545 1545 1545 1544 1544 1544 1543 1543
1501 1503 1505 1507 1510 1511 1513 1516 1518 1519 1521 1523 1525 1527 1529 1530 1532 1533 1534 1535 1536 1537 1538 1539 1540 1540 1541 1542 1542 1542 1542 1542 1542 1542 1542 1542 1542 1541 1541 1540 1540 1540 1539
1496 1498 1500 1503 1505 1507 1509 1511 1513 1515 1517 1519 1521 1523 1524 1526 1528 1529 1530 1531 1532 1532 1533 1534 1535 1536 1537 1538 1538 1538 1539 1539 1539 1538 1538 1538 1538 1537 1537 1536 1536 1535 1535
1492 1494 1496 1498 1501 1503 1505 1507 1508 1510 1512 1514 1516 1518 1520 1521 1523 1524 1526 1527 1529 1528 1528 1529 1530 1531 1532 1533 1534 1534 1535 1535 1534 1534 1534 1534 1534 1533 1533 1532 1532 1531 1531
1488 1489 1491 1494 1496 1498 1500 1502 1503 1505 1507 1509 1511 1513 1515 1516 1518 1519 1521 1522 1524 1525 1524 1524 1526 1527 1528 1529 1530 1530 1530 1530 1530 1530 1530 1530 1530 1529 1529 1528 1528 1528 1527
1483 1484 1486 1489 1490 1492 1494 1496 1498 1500 1502 1504 1506 1508 1509 1511 1512 1514 1516 1517 1518 1520 1520 1520 1522 1523 1523 1524 1525 1525 1526 1526 1526 1526 1526 1525 1525 1525 1525 1524 1524 1524 1523
1478 1480 1482 1484 1485 1487 1489 1490 1492 1494 1496 1498 1500 1502 1504 1506 1507 1509 1510 1512 1513 1514 1515 1515 1516 1517 1518 1519 1520 1520 1521 1521 1521 1521 1521 1521 1521 1521 1520 1520 1520 1519 1519
1473 1475 1477 1479 1480 1482 1484 1486 1487 1489 1491 1493 1495 1497 1498 1500 1501 1503 1505 1506 1507 1509 1510 1511 1511 1512 1513 1514 1514 1515 1516 1516 1516 1516 1516 1516 1516 1516 1516 1515 1515 1515 1514
1468 1470 1473 1474 1476 1478 1479 1480 1482 1484 1485 1487 1489 1491 1493 1495 1496 1498 1499 1500 1502 1503 1504 1505 1506 1507 1507 1508 1509 1509 1510 1510 1511 1511 1511 1511 1512 1511 1511 1511 1510 1510 1510
1463 1465 1468 1469 1471 1473 1474 1475 1477 1479 1480 1482 1484 1485 1488 1489 1491 1492 1494 1495 1496 1497 1498 1499 1500 1501 1502 1502 1503 1504 1504 1505 1505 1506 1506 1506 1506 1505 1505 1505 1505 1505 1504
1459 1461 1462 1464 1465 1467 1469 1471 1472 1474 1475 1476 1478 1479 1482 1483 1485 1487 1488 1489 1491 1492 1492 1493 1494 1495 1495 1497 1498 1499 1499 1499 1499 1501 1500 1500 1501 1500 1500 1500 1500 1500 1499
1454 1455 1457 1459 1460 1462 1464 1465 1467 1468 1469 1471 1472 1473 1475 1477 1479 1480 1482 1483 1484 1486 1487 1488 1488 1489 1490 1492 1493 1493 1494 1494 1494 1495 1495 1494 1495 1494 1494 1494 1494 1494 1494
1449 1450 1452 1454 1455 1456 1458 1460 1462 1463 1464 1465 1467 1468 1469 1471 1472 1474 1476 1477 1478 1479 1481 1482 1483 1484 1486 1487 1487 1488 1489 1489 1489 1490 1491 1489 1489 1489 1489 1489 1489 1489 1488
1444 1446 1447 1449 1450 1451 1453 1455 1457 1458 1459 1460 1461 1462 1464 1465 1467 1468 1470 1471 1472 1473 1475 1476 1478 1479 1480 1481 1482 1483 1483 1484 1483 1484 1485 1484 1483 1483 1483 1482 1483 1483 1483
1440 1441 1443 1444 1445 1446 1448 1450 1451 1452 1453 1455 1456 1457 1458 1460 1461 1462 1464 1465 1466 1467 1469 1470 1471 1473 1474 1475 1476 1477 1478 1479 1478 1478 1479 1479 1478 1478 1477 1476 1476 1476 1476